[[{"header":{"parameterUnit":"m.s-1","parameterCategory":1,"la1":30.2992,"la2":30.254,"lo1":-89.0895,"lo2":-89.0443,"dy":0.0025,"dx":0.0025,"nx":19,"ny":19,"refTime":"2026-05-09T21:00:00:Z","depth":0,"parameterNumber":2,"parameterNumberName":"U-component_of_WINDS"},"data":[0,0,0,-2.5444,-2.5445,-2.5497,-2.5497,-2.5578,-2.5579,0,0,0,0,0,0,0,0,0,0,0,-2.5436,-2.5437,-2.5444,-2.5445,-2.5497,-2.5497,-2.5578,-2.5579,0,0,0,0,0,0,0,0,0,0,0,-2.5436,-2.5437,-2.5438,-2.5445,-2.5497,-2.5497,-2.5578,-2.5534,0,0,0,0,0,0,0,0,0,0,-2.5481,-2.5482,-2.5437,-2.5438,-2.5446,-2.5497,-2.5497,-2.5531,-2.5536,-2.5561,0,-2.5584,0,-2.5583,-2.5585,-2.5586,0,0,0,-2.5439,-2.5478,-2.5484,-2.5438,-2.5446,-2.5497,-2.5472,-2.5534,-2.554,-2.5568,-2.5585,-2.5588,-2.5584,-2.5586,-2.5587,-2.5746,-2.5747,0,0,-2.5436,-2.545,-2.548,-2.5488,-2.548,-2.547,-2.5474,-2.5537,-2.5557,-2.5585,-2.5589,-2.5586,-2.5587,-2.5587,-2.5745,-2.5747,0,0,0,-2.5432,-2.5448,-2.5453,-2.5485,-2.5494,-2.5472,-2.5476,-2.5554,-2.5555,-2.559,-2.5587,-2.5587,-2.5588,-2.5744,-2.5746,-2.5809,0,0,0,-2.543,-2.5446,-2.5452,-2.5461,-2.5493,-2.5524,-2.5492,-2.555,-2.5557,-2.5586,-2.5587,-2.5589,-2.5743,-2.5745,-2.5805,-2.5837,0,0,0,-2.543,-2.5446,-2.5456,-2.5462,-2.5485,-2.5523,-2.5527,-2.5551,-2.5555,-2.5586,-2.559,-2.5742,-2.5745,-2.5801,-2.5831,-2.5884,0,0,0,-2.5435,-2.5512,-2.5457,-2.5542,-2.5484,-2.5562,-2.5526,-2.5584,-2.5617,-2.5588,-2.5743,-2.5746,-2.58,-2.5827,-2.588,-2.593,-2.5952,0,0,-2.5539,-2.5525,-2.5574,-2.5527,-2.5617,-2.5553,-2.5654,-2.5672,-2.5662,-2.5719,-2.5723,-2.5807,-2.583,-2.5883,-2.6073,-2.6091,0,0,0,-2.5612,-2.5647,-2.5668,-2.5701,-2.5717,-2.5733,-2.5734,-2.5742,-2.5789,-2.5694,-2.584,-2.5853,-2.5883,-2.5907,-2.5922,-2.5947,-2.5757,-2.5757,-2.5757,-2.5779,-2.5763,-2.5844,-2.5835,-2.5867,-2.5869,-2.5894,-2.5904,-2.5878,-2.5913,-2.5929,-2.6047,-2.6075,-2.6086,-2.6113,-2.5955,-2.5955,-2.5955,-2.5956,-2.5931,-2.5979,-2.5944,-2.601,-2.5993,-2.6048,-2.6054,-2.6034,-2.6084,-2.6032,-2.6058,-2.6004,-2.6106,-2.6129,-2.596,-2.5959,-2.5959,-2.5958,-2.5958,-2.6039,-2.6059,-2.6067,-2.6114,-2.6152,-2.6141,-2.6191,-2.6174,-2.6158,-2.6184,-2.62,-2.6199,-2.6196,-2.6193,-2.6193,-2.6194,-2.6194,-2.6194,-2.6195,-2.6148,-2.6154,-2.6198,-2.6222,-2.6242,-2.6266,-2.627,-2.6289,-2.6306,-2.629,-2.629,-2.6262,-2.6119,-2.6083,-2.6201,-2.62,-2.6199,-2.6198,-2.6198,-2.6308,-2.6269,-2.6336,-2.6356,-2.6385,-2.6425,-2.6403,-2.6444,-2.6458,-2.6483,-2.645,-2.6347,-2.6331,-2.6319,-2.6289,-2.6453,-2.6453,-2.6453,-2.6453,-2.6399,-2.6389,-2.6455,-2.6488,-2.6519,-2.6506,-2.6585,-2.6589,-2.6588,-2.6596,-2.657,-2.653,-2.6518,-2.6508,-2.6492,-2.6464,-2.6669,-2.6669,-2.6669,-2.6497,-2.649,-2.6558,-2.6556,-2.6578,-2.6597,-2.667,-2.6711,-2.6702,-2.6678,-2.6602,-2.6593,-2.6527,-2.6507,-2.648,-2.6455,-2.6404,0,0]},{"header":{"parameterUnit":"m.s-1","parameterCategory":1,"la1":30.2992,"la2":30.254,"lo1":-89.0895,"lo2":-89.0443,"dy":0.0025,"dx":0.0025,"nx":19,"ny":19,"refTime":"2026-05-09T21:00:00:Z","depth":0,"parameterNumber":3,"parameterNumberName":"V-component_of_WINDS"},"data":[0,0,0,2.7653,2.7654,2.7739,2.7739,2.7836,2.7837,0,0,0,0,0,0,0,0,0,0,0,2.7621,2.7622,2.7652,2.7654,2.7739,2.7739,2.7836,2.7837,0,0,0,0,0,0,0,0,0,0,0,2.7621,2.7622,2.7622,2.7655,2.7739,2.7739,2.7836,2.7776,0,0,0,0,0,0,0,0,0,0,2.7696,2.7661,2.7622,2.7622,2.7655,2.7738,2.7739,2.7773,2.778,2.7794,0,2.7805,0,2.7822,2.7843,2.7843,0,0,0,2.7659,2.7656,2.7684,2.7622,2.7656,2.7738,2.7702,2.7777,2.7784,2.7802,2.7806,2.781,2.7824,2.7843,2.7844,2.7911,2.7912,0,0,2.7654,2.7633,2.7679,2.7689,2.7675,2.7699,2.7704,2.7782,2.7784,2.7807,2.7813,2.7826,2.7844,2.7845,2.7911,2.7912,0,0,0,2.7638,2.763,2.7656,2.7684,2.77,2.7701,2.7708,2.7781,2.7792,2.7814,2.7827,2.7845,2.7846,2.7911,2.7911,2.7898,0,0,0,2.7635,2.762,2.7654,2.7642,2.7699,2.7742,2.7705,2.7786,2.7796,2.7826,2.7845,2.7846,2.7911,2.7911,2.7898,2.7894,0,0,0,2.7618,2.7618,2.7629,2.7641,2.7677,2.7741,2.7756,2.7789,2.7803,2.7843,2.7847,2.7911,2.7911,2.7898,2.7895,2.7907,0,0,0,2.7593,2.7614,2.7628,2.7656,2.7676,2.7732,2.7756,2.7799,2.7831,2.7845,2.7911,2.7911,2.7898,2.7895,2.7907,2.7913,2.7914,0,0,2.7608,2.7615,2.7633,2.7648,2.7697,2.7721,2.7767,2.7816,2.7838,2.7886,2.7888,2.7898,2.7895,2.7907,2.7925,2.7925,0,0,0,2.7631,2.7644,2.7661,2.7692,2.773,2.7763,2.7807,2.7826,2.7867,2.7859,2.7906,2.7904,2.7912,2.7916,2.7917,2.7925,2.7912,2.7912,2.7912,2.7621,2.7649,2.7682,2.7721,2.775,2.7796,2.7822,2.7855,2.7874,2.7885,2.7899,2.7906,2.791,2.7911,2.7919,2.7904,2.7904,2.7904,2.7904,2.7645,2.7668,2.7694,2.7735,2.7765,2.7799,2.7844,2.7857,2.7893,2.7898,2.7906,2.7909,2.791,2.7919,2.7903,2.7904,2.7904,2.7904,2.7904,2.7642,2.7658,2.7681,2.7728,2.7762,2.78,2.7834,2.786,2.7884,2.7893,2.7911,2.7911,2.7915,2.7899,2.7899,2.79,2.79,2.79,2.79,2.763,2.7656,2.7682,2.7725,2.7749,2.7783,2.783,2.7854,2.7886,2.7902,2.7903,2.7921,2.7905,2.7901,2.79,2.79,2.79,2.79,2.79,2.7644,2.7645,2.7685,2.7709,2.7762,2.7794,2.7827,2.7873,2.7896,2.7912,2.793,2.7914,2.7923,2.7922,2.7919,2.7923,2.7923,2.7923,2.7923,2.7642,2.7649,2.7696,2.7732,2.7771,2.7805,2.7849,2.7886,2.7924,2.794,2.7944,2.7941,2.794,2.795,2.7949,2.7946,2.7957,2.7957,2.7957,2.7652,2.7665,2.7698,2.7736,2.778,2.7817,2.786,2.79,2.7943,2.7959,2.7954,2.7952,2.7949,2.7946,2.7962,2.796,2.7956,0,0]}]]